[[{"header":{"parameterUnit":"m.s-1","parameterCategory":1,"la1":30.2992,"la2":30.254,"lo1":-89.0895,"lo2":-89.0443,"dy":0.0025,"dx":0.0025,"nx":19,"ny":19,"refTime":"2026-03-31T09:00:00:Z","depth":0,"parameterNumber":2,"parameterNumberName":"U-component_of_WINDS"},"data":[0,0,0,-4.2592,-4.2595,-4.2754,-4.2755,-4.2959,-4.2961,0,0,0,0,0,0,0,0,0,0,0,-4.2546,-4.2547,-4.2592,-4.2596,-4.2754,-4.2755,-4.2959,-4.2961,0,0,0,0,0,0,0,0,0,0,0,-4.2545,-4.2547,-4.2548,-4.2596,-4.2754,-4.2755,-4.2958,-4.2838,0,0,0,0,0,0,0,0,0,0,-4.2683,-4.2641,-4.2546,-4.2548,-4.2597,-4.2754,-4.2755,-4.2832,-4.2845,-4.2887,0,-4.2925,0,-4.2946,-4.2975,-4.2975,0,0,0,-4.2595,-4.263,-4.2673,-4.2549,-4.2599,-4.2754,-4.2683,-4.284,-4.2855,-4.2905,-4.2928,-4.2936,-4.295,-4.2976,-4.2977,-4.3222,-4.3223,0,0,-4.2586,-4.2574,-4.2662,-4.2682,-4.2659,-4.2677,-4.2688,-4.2849,-4.2873,-4.2929,-4.294,-4.2953,-4.2977,-4.2979,-4.3221,-4.3222,0,0,0,-4.2561,-4.2568,-4.2607,-4.2674,-4.2703,-4.2682,-4.2694,-4.2866,-4.2879,-4.2943,-4.2956,-4.2978,-4.2981,-4.322,-4.3222,-4.3267,0,0,0,-4.2556,-4.2554,-4.2603,-4.2597,-4.27,-4.2786,-4.2707,-4.2868,-4.2887,-4.2955,-4.2979,-4.2983,-4.3218,-4.3221,-4.3263,-4.329,0,0,0,-4.2535,-4.2551,-4.2575,-4.2596,-4.2664,-4.2784,-4.2807,-4.2872,-4.2895,-4.2975,-4.2984,-4.3218,-4.322,-4.326,-4.3285,-4.335,0,0,0,-4.2509,-4.2613,-4.2575,-4.2697,-4.2663,-4.2812,-4.2806,-4.2917,-4.2992,-4.298,-4.3219,-4.3221,-4.3259,-4.3281,-4.3347,-4.3402,-4.3425,0,0,-4.2634,-4.2628,-4.2701,-4.2672,-4.2824,-4.2789,-4.2948,-4.3028,-4.3046,-4.3162,-4.3169,-4.3265,-4.3284,-4.335,-4.356,-4.3578,0,0,0,-4.2737,-4.2789,-4.2832,-4.2903,-4.2967,-4.3023,-4.308,-4.311,-4.3209,-4.3104,-4.3308,-4.332,-4.3359,-4.3386,-4.3401,-4.3434,-4.3234,-4.3234,-4.3233,-4.2896,-4.2914,-4.3036,-4.3074,-4.3143,-4.3201,-4.3258,-4.3308,-4.3307,-4.3355,-4.3388,-4.3514,-4.3545,-4.3557,-4.3592,-4.3421,-4.3421,-4.3422,-4.3422,-4.308,-4.3155,-4.3152,-4.3268,-4.3287,-4.3385,-4.3446,-4.3441,-4.3535,-4.349,-4.3525,-4.3472,-4.3576,-4.3607,-4.3425,-4.3425,-4.3424,-4.3424,-4.3424,-4.3184,-4.3224,-4.3259,-4.3364,-4.3443,-4.3478,-4.3568,-4.3583,-4.3597,-4.3632,-4.3669,-4.3668,-4.3667,-4.3649,-4.365,-4.365,-4.365,-4.3651,-4.3651,-4.3278,-4.3316,-4.339,-4.3468,-4.3515,-4.358,-4.364,-4.3688,-4.3744,-4.3747,-4.3747,-4.374,-4.3584,-4.3542,-4.3658,-4.3656,-4.3656,-4.3655,-4.3654,-4.3454,-4.3417,-4.3531,-4.3579,-4.3671,-4.3748,-4.3766,-4.3862,-4.3903,-4.3947,-4.3934,-4.3816,-4.381,-4.3798,-4.3764,-4.393,-4.393,-4.393,-4.393,-4.354,-4.354,-4.366,-4.3735,-4.3811,-4.384,-4.3968,-4.4016,-4.406,-4.4087,-4.4066,-4.4023,-4.401,-4.4012,-4.3996,-4.3964,-4.4177,-4.4177,-4.4177,-4.3649,-4.3656,-4.3762,-4.3805,-4.3879,-4.3942,-4.4062,-4.4149,-4.4192,-4.4188,-4.4108,-4.4098,-4.4029,-4.4006,-4.3997,-4.3971,-4.3913,0,0]},{"header":{"parameterUnit":"m.s-1","parameterCategory":1,"la1":30.2992,"la2":30.254,"lo1":-89.0895,"lo2":-89.0443,"dy":0.0025,"dx":0.0025,"nx":19,"ny":19,"refTime":"2026-03-31T09:00:00:Z","depth":0,"parameterNumber":3,"parameterNumberName":"V-component_of_WINDS"},"data":[0,0,0,3.7515,3.7517,3.7619,3.7619,3.7742,3.7743,0,0,0,0,0,0,0,0,0,0,0,3.7483,3.7483,3.7515,3.7517,3.7619,3.7619,3.7741,3.7743,0,0,0,0,0,0,0,0,0,0,0,3.7482,3.7483,3.7484,3.7518,3.7619,3.7619,3.7741,3.7667,0,0,0,0,0,0,0,0,0,0,3.7569,3.7537,3.7483,3.7484,3.7518,3.7619,3.7619,3.7663,3.7671,3.7693,0,3.7714,0,3.773,3.7751,3.7751,0,0,0,3.7519,3.753,3.756,3.7484,3.7519,3.7618,3.7573,3.7668,3.7677,3.7704,3.7716,3.772,3.7732,3.7751,3.7752,3.788,3.788,0,0,3.7513,3.7499,3.7554,3.7566,3.7552,3.757,3.7576,3.7673,3.7684,3.7716,3.7723,3.7734,3.7752,3.7753,3.788,3.788,0,0,0,3.7496,3.7495,3.7523,3.7561,3.758,3.7573,3.758,3.768,3.769,3.7725,3.7736,3.7753,3.7754,3.7879,3.788,3.7894,0,0,0,3.7493,3.7485,3.752,3.7512,3.7578,3.7632,3.7584,3.7684,3.7695,3.7735,3.7753,3.7755,3.7878,3.7879,3.7893,3.7903,0,0,0,3.7477,3.7483,3.7497,3.7511,3.7555,3.763,3.7647,3.7686,3.7702,3.7751,3.7756,3.7878,3.7879,3.7891,3.7901,3.7934,0,0,0,3.7455,3.7507,3.7497,3.756,3.7554,3.7639,3.7646,3.771,3.7754,3.7753,3.7878,3.788,3.7891,3.7899,3.7932,3.7959,3.7969,0,0,3.7512,3.7513,3.7551,3.7546,3.763,3.7625,3.7711,3.7763,3.7779,3.7845,3.7848,3.7893,3.79,3.7933,3.803,3.8038,0,0,0,3.7564,3.7591,3.7617,3.766,3.7703,3.774,3.7781,3.7801,3.7858,3.7811,3.7914,3.7919,3.7939,3.7952,3.7959,3.7977,3.7885,3.7885,3.7885,3.7624,3.7645,3.7709,3.7743,3.7784,3.7827,3.7862,3.7896,3.7902,3.7926,3.7946,3.8002,3.8018,3.8023,3.8042,3.7962,3.7962,3.7962,3.7962,3.7711,3.7753,3.7763,3.783,3.7851,3.7906,3.795,3.7953,3.8006,3.7989,3.8007,3.7986,3.8031,3.8048,3.7963,3.7963,3.7963,3.7963,3.7963,3.7752,3.7776,3.7801,3.7867,3.7914,3.7945,3.7998,3.8014,3.803,3.8048,3.8071,3.8071,3.8073,3.8058,3.8058,3.8058,3.8058,3.8059,3.8059,3.7786,3.7814,3.7857,3.7909,3.794,3.7982,3.8027,3.8057,3.8094,3.8101,3.8102,3.8106,3.8032,3.8013,3.8062,3.8061,3.8061,3.8061,3.806,3.7866,3.7851,3.7918,3.7949,3.8012,3.8059,3.808,3.814,3.8167,3.8192,3.8193,3.8136,3.8137,3.8131,3.8116,3.8188,3.8188,3.8188,3.8188,3.7901,3.7905,3.7978,3.8026,3.8076,3.8103,3.8176,3.8212,3.8246,3.8264,3.8256,3.8237,3.8231,3.8236,3.8228,3.8214,3.831,3.831,3.831,3.7952,3.7961,3.8022,3.8058,3.8109,3.8152,3.8222,3.8276,3.8311,3.8315,3.8279,3.8273,3.8243,3.8232,3.8234,3.8222,3.8196,0,0]}]]